Meriden, CT

5:22 PM EST on January 20, 2017 (GMT -0500)
Meriden Markham Municipal

Weather History for KMMK - December, 2012

Change the Weather History Date:

Sunday, December 9, 2012

  Actual Average (KOXC) Record (KOXC)
Temperature  
Mean Temperature 42 °F -  
Max Temperature 46 °F 39 °F 53 °F (2008)
Min Temperature 39 °F 25 °F 6 °F (2002)
Degree Days  
Heating Degree Days 22    
Moisture  
Dew Point 39 °F    
Average Humidity 88    
Maximum Humidity 100    
Minimum Humidity 63    
Precipitation  
Precipitation 0.13 in - - ()
Sea Level Pressure  
Sea Level Pressure 30.13 in    
Wind  
Wind Speed 2 mph (North)    
Max Wind Speed 9 mph    
Max Gust Speed -    
Visibility 5 miles    
Events Fog , Rain    
Averages and records for this station are not official NWS values.
T = Trace of Precipitation, MM = Missing Value Source: NWS Daily Summary

Daily Weather History Graph

Daily Weather History Graph

Search for Another Location

Airport or City:

Trip Planner

Search our weather history database for the weather conditions in past years. The results will help you decide how hot, cold, wet, or windy it might be!

Date:

Astronomy

Dec. 09, 2012 Rise Set
Actual Time 7:06 AM EST 4:21 PM EST
Civil Twilight 6:35 AM EST 4:52 PM EST
Nautical Twilight 6:00 AM EST 5:27 PM EST
Astronomical Twilight 5:26 AM EST 6:01 PM EST
Moon 2:33 AM EST (12/9) 1:28 PM EST (12/9)
Length of Visible Light 10h 17m
Length of Day
9h 14m
Waning Crescent, 19% of the Moon is Illuminated
Dec 9
Waning Crescent
Dec 13
New
Dec 20
First Quarter
Dec 28
Full
Jan 4
Last Quarter

Hourly Weather History & Observations

Time (EST) Temp. Windchill Dew Point Humidity Pressure Visibility Wind Dir Wind Speed Gust Speed Precip Events Conditions
12:21 AM 44.6 °F - 42.8 °F 93% 29.99 in 1.2 mi Calm Calm - N/A   Overcast
12:34 AM 44.6 °F - 44.6 °F 100% 30.00 in 0.8 mi Calm Calm - N/A   Overcast
12:48 AM 44.6 °F - 42.8 °F 93% 30.00 in 0.2 mi Calm Calm - N/A Fog Fog
12:53 AM 43.0 °F - 42.1 °F 97% 30.00 in 0.2 mi Calm Calm - N/A Fog Fog
1:25 AM 42.8 °F 40.1 °F 42.8 °F 100% 30.02 in 0.5 mi WNW 4.6 mph - N/A Fog Fog
1:31 AM 44.6 °F - 42.8 °F 93% 30.02 in 0.2 mi Calm Calm - N/A Fog Fog
1:43 AM 44.6 °F - 44.6 °F 100% 30.02 in 0.8 mi Calm Calm - N/A   Overcast
1:50 AM 44.6 °F - 42.8 °F 93% 30.03 in 1.5 mi Calm Calm - N/A   Overcast
1:53 AM 44.1 °F 41.5 °F 43.0 °F 96% 30.04 in 1.5 mi Variable 4.6 mph - N/A   Overcast
1:59 AM 46.4 °F - 44.6 °F 93% 30.04 in 3.0 mi Calm Calm - N/A   Overcast
2:38 AM 44.6 °F - 42.8 °F 93% 30.06 in 1.8 mi Calm Calm - N/A   Overcast
2:53 AM 43.0 °F - 42.1 °F 97% 30.06 in 0.5 mi Calm Calm - N/A Fog Fog
3:24 AM 41.0 °F - 41.0 °F 100% 30.07 in 0.2 mi Calm Calm - N/A Fog Fog
3:37 AM 41.0 °F - 41.0 °F 100% 30.08 in 0.5 mi Calm Calm - N/A Fog Fog
3:49 AM 41.0 °F - 39.2 °F 93% 30.08 in 1.0 mi Calm Calm - N/A   Mostly Cloudy
3:53 AM 41.0 °F - 39.9 °F 96% 30.08 in 0.8 mi Calm Calm - N/A   Mostly Cloudy
4:07 AM 41.0 °F 39.0 °F 39.2 °F 93% 30.08 in 0.2 mi NNE 3.5 mph - N/A Fog Fog
4:20 AM 39.2 °F - 39.2 °F 100% 30.09 in 0.2 mi Calm Calm - N/A Fog Fog
4:48 AM 39.2 °F - 39.2 °F 100% 30.11 in 0.8 mi Calm Calm - N/A   Mist
4:53 AM 41.0 °F - 39.9 °F 96% 30.11 in 1.0 mi Calm Calm - N/A   Mist
5:00 AM 39.2 °F - 39.2 °F 100% 30.11 in 0.5 mi Calm Calm - N/A Fog Fog
5:14 AM 41.0 °F 38.0 °F 39.2 °F 93% 30.12 in 2.5 mi North 4.6 mph - N/A   Partly Cloudy
5:21 AM 39.2 °F 35.9 °F 39.2 °F 100% 30.13 in 10.0 mi North 4.6 mph - N/A   Partly Cloudy
5:53 AM 41.0 °F 39.0 °F 39.0 °F 93% 30.15 in 10.0 mi North 3.5 mph - N/A   Clear
6:53 AM 42.1 °F 40.2 °F 36.0 °F 79% 30.19 in 10.0 mi NNW 3.5 mph - N/A   Clear
7:53 AM 42.1 °F 39.2 °F 36.0 °F 79% 30.24 in 10.0 mi NNW 4.6 mph - N/A   Clear
8:53 AM 43.0 °F 37.7 °F 34.0 °F 71% 30.25 in 10.0 mi North 9.2 mph - N/A   Clear
9:53 AM 44.1 °F 40.8 °F 33.1 °F 65% 30.27 in 10.0 mi North 5.8 mph - N/A   Clear
10:53 AM 44.1 °F 39.5 °F 34.0 °F 68% 30.25 in 10.0 mi North 8.1 mph - N/A   Clear
11:53 AM 44.1 °F 39.0 °F 33.1 °F 65% 30.25 in 10.0 mi North 9.2 mph - N/A   Mostly Cloudy
12:53 PM 45.0 °F 41.2 °F 33.1 °F 63% 30.24 in 10.0 mi North 6.9 mph - N/A   Overcast
1:53 PM 45.0 °F 40.6 °F 34.0 °F 65% 30.22 in 10.0 mi NNE 8.1 mph - N/A   Mostly Cloudy
2:53 PM 45.0 °F 41.8 °F 34.0 °F 65% 30.24 in 10.0 mi NNE 5.8 mph - N/A   Overcast
3:53 PM 43.0 °F - 37.0 °F 80% 30.23 in 10.0 mi Calm Calm - 0.01 in   Overcast
4:53 PM 42.1 °F - 37.9 °F 85% 30.24 in 9.0 mi Calm Calm - 0.00 in Rain Light Rain
5:53 PM 42.1 °F 38.4 °F 36.0 °F 79% 30.25 in 10.0 mi NNE 5.8 mph - 0.02 in Rain Light Rain
6:53 PM 42.1 °F 40.2 °F 37.0 °F 82% 30.25 in 10.0 mi NE 3.5 mph - 0.00 in Rain Light Rain
7:53 PM 42.1 °F 39.2 °F 36.0 °F 79% 30.23 in 10.0 mi Variable 4.6 mph - 0.00 in   Overcast
8:53 PM 39.9 °F 36.7 °F 36.0 °F 86% 30.20 in 4.0 mi ENE 4.6 mph - 0.00 in Rain Light Rain
9:20 PM 39.2 °F 35.9 °F 37.4 °F 93% 30.19 in 7.0 mi ENE 4.6 mph - 0.00 in   Overcast
9:53 PM 39.9 °F - 37.9 °F 93% 30.17 in 3.0 mi Calm Calm - 0.00 in Rain Light Rain
10:53 PM 39.9 °F 37.8 °F 37.9 °F 93% 30.12 in 8.0 mi NNE 3.5 mph - 0.02 in Rain Light Rain
11:42 PM 39.2 °F 35.0 °F 37.4 °F 93% 30.10 in 2.5 mi North 5.8 mph - 0.05 in Rain Heavy Rain
11:53 PM 39.9 °F 35.8 °F 37.9 °F 93% 30.09 in 3.0 mi NNE 5.8 mph - 0.08 in Rain Heavy Rain